Olathe, KS

2:46 PM CDT on September 19, 2017 (GMT -0500)
Johnson County Executive

Weather History for KOJC - November, 2013

Change the Weather History Date:

Tuesday, November 19, 2013

  Actual Average Record
Temperature  
Mean Temperature 47 °F 42 °F  
Max Temperature 59 °F 52 °F 76 °F (1942)
Min Temperature 35 °F 33 °F 18 °F (1969)
Degree Days  
Heating Degree Days 18 23  
Month to date heating degree days 343 349  
Since 1 July heating degree days 691 674  
Cooling Degree Days 0 0  
Month to date cooling degree days 0 0  
Year to date cooling degree days 1360 1349  
Moisture  
Dew Point 26 °F    
Average Humidity 48    
Maximum Humidity 70    
Minimum Humidity 26    
Precipitation  
Precipitation 0.00 in 0.08 in 1.16 in (1992)
Month to date precipitation 0.90 1.71  
Year to date precipitation 35.78 37.62  
Sea Level Pressure  
Sea Level Pressure 30.13 in    
Wind  
Wind Speed 13 mph (SSE)    
Max Wind Speed 24 mph    
Max Gust Speed 30 mph    
Visibility 10 miles    
Events      
T = Trace of Precipitation, MM = Missing Value Source: NWS Daily Summary

Daily Weather History Graph

Daily Weather History Graph

Search for Another Location

Airport or City:

Trip Planner

Search our weather history database for the weather conditions in past years. The results will help you decide how hot, cold, wet, or windy it might be!

Date:

Astronomy

Nov. 19, 2013 Rise Set
Actual Time 7:06 AM CST 5:02 PM CST
Civil Twilight 6:37 AM CST 5:31 PM CST
Nautical Twilight 6:05 AM CST 6:03 PM CST
Astronomical Twilight 5:33 AM CST 6:35 PM CST
Moon 6:54 PM CST 8:45 AM CST
Length of Visible Light 10h 53m
Length of Day
9h 56m
Waning Gibbous, 96% of the Moon is Illuminated
Nov 19
Waning Gibbous
Nov 25
Last Quarter
Dec 2
New
Dec 9
First Quarter
Dec 17
Full

Hourly Weather History & Observations

Time (CST) Temp. Windchill Dew Point Humidity Pressure Visibility Wind Dir Wind Speed Gust Speed Precip Events Conditions
12:53 AM 37.9 °F 35.5 °F 26.1 °F 62% 30.25 in 10.0 mi SE 3.5 mph - N/A   Clear
1:53 AM 39.0 °F 36.8 °F 27.0 °F 62% 30.25 in 10.0 mi SSE 3.5 mph - N/A   Clear
2:53 AM 37.9 °F 34.4 °F 25.0 °F 60% 30.24 in 10.0 mi SSE 4.6 mph - N/A   Clear
3:53 AM 39.0 °F 35.7 °F 25.0 °F 57% 30.23 in 10.0 mi SE 4.6 mph - N/A   Clear
4:53 AM 37.9 °F 32.7 °F 26.1 °F 62% 30.22 in 10.0 mi SE 6.9 mph - N/A   Clear
5:53 AM 36.0 °F 29.6 °F 25.0 °F 64% 30.23 in 10.0 mi SSE 8.1 mph - N/A   Clear
6:53 AM 36.0 °F 29.6 °F 26.1 °F 67% 30.22 in 10.0 mi SSE 8.1 mph - N/A   Clear
7:53 AM 36.0 °F 28.5 °F 26.1 °F 67% 30.23 in 10.0 mi SSE 10.4 mph - N/A   Clear
8:53 AM 42.1 °F 35.7 °F 28.0 °F 58% 30.23 in 10.0 mi SSE 11.5 mph - N/A   Clear
9:53 AM 48.9 °F - 28.0 °F 44% 30.21 in 10.0 mi SSE 15.0 mph - N/A   Clear
10:53 AM 53.1 °F - 28.0 °F 38% 30.20 in 10.0 mi SSE 16.1 mph 24.2 mph N/A   Mostly Cloudy
11:53 AM 55.0 °F - 25.0 °F 31% 30.17 in 10.0 mi SSE 16.1 mph - N/A   Scattered Clouds
12:53 PM 57.0 °F - 26.1 °F 30% 30.13 in 10.0 mi SSE 19.6 mph - N/A   Overcast
1:53 PM 57.9 °F - 26.1 °F 30% 30.09 in 10.0 mi SSE 17.3 mph 26.5 mph N/A   Mostly Cloudy
2:53 PM 59.0 °F - 25.0 °F 27% 30.06 in 10.0 mi SSE 13.8 mph - N/A   Clear
3:53 PM 55.9 °F - 24.1 °F 29% 30.05 in 10.0 mi SSE 19.6 mph 25.3 mph N/A   Clear
4:53 PM 54.0 °F - 25.0 °F 33% 30.04 in 10.0 mi SSE 12.7 mph - N/A   Overcast
5:53 PM 52.0 °F - 27.0 °F 38% 30.03 in 10.0 mi SSE 11.5 mph - N/A   Clear
6:53 PM 51.1 °F - 26.1 °F 38% 30.02 in 10.0 mi SSE 16.1 mph 26.5 mph N/A   Partly Cloudy
7:53 PM 51.1 °F - 26.1 °F 38% 30.02 in 10.0 mi SSE 16.1 mph 26.5 mph N/A   Overcast
8:53 PM 50.0 °F - 25.0 °F 38% 30.01 in 10.0 mi SSE 16.1 mph - N/A   Overcast
9:53 PM 48.9 °F - 25.0 °F 39% 30.01 in 10.0 mi SSE 16.1 mph 25.3 mph N/A   Overcast
10:53 PM 48.9 °F - 25.0 °F 39% 29.99 in 10.0 mi SSE 16.1 mph 24.2 mph N/A   Overcast
11:53 PM 50.0 °F - 23.0 °F 35% 30.00 in 10.0 mi South 17.3 mph 25.3 mph N/A   Overcast